TimePDT,TemperatureF,Dew PointF,Humidity,Sea Level PressureIn,VisibilityMPH,Wind Direction,Wind SpeedMPH,Gust SpeedMPH,PrecipitationIn,Events,Conditions,WindDirDegrees,DateUTC
12:53 AM,51.1,45.0,80,30.15,8.0,Calm,Calm,-,N/A,,Clear,0,2013-07-26 07:53:00
1:53 AM,48.9,44.1,83,30.16,9.0,Calm,Calm,-,N/A,,Clear,0,2013-07-26 08:53:00
2:53 AM,48.9,43.0,80,30.16,9.0,Calm,Calm,-,N/A,,Clear,0,2013-07-26 09:53:00
3:53 AM,46.9,42.1,83,30.17,6.0,Calm,Calm,-,N/A,,Haze,0,2013-07-26 10:53:00
4:53 AM,46.9,42.1,83,30.17,9.0,Calm,Calm,-,N/A,,Partly Cloudy,0,2013-07-26 11:53:00
5:50 AM,46.4,42.8,87,30.16,5.0,Calm,Calm,-,N/A,,Scattered Clouds,0,2013-07-26 12:50:00
5:53 AM,46.0,42.1,86,30.16,4.0,Calm,Calm,-,N/A,,Mostly Cloudy,0,2013-07-26 12:53:00
6:53 AM,48.9,44.1,83,30.18,7.0,Calm,Calm,-,N/A,,Mostly Cloudy,0,2013-07-26 13:53:00
7:53 AM,51.1,46.9,86,30.19,6.0,Calm,Calm,-,N/A,,Overcast,0,2013-07-26 14:53:00
8:21 AM,53.6,48.2,82,30.19,6.0,Calm,Calm,-,N/A,,Haze,0,2013-07-26 15:21:00
8:53 AM,57.9,52.0,81,30.20,6.0,Calm,Calm,-,N/A,,Haze,0,2013-07-26 15:53:00
9:09 AM,59.0,51.8,77,30.20,6.0,Calm,Calm,-,N/A,,Haze,0,2013-07-26 16:09:00
9:53 AM,64.9,52.0,63,30.20,7.0,NW,4.6,-,N/A,,Clear,310,2013-07-26 16:53:00
10:53 AM,66.0,52.0,60,30.21,8.0,WNW,4.6,-,N/A,,Clear,300,2013-07-26 17:53:00
11:53 AM,68.0,51.1,55,30.21,8.0,WNW,9.2,-,N/A,,Clear,290,2013-07-26 18:53:00
12:53 PM,69.1,48.9,49,30.21,9.0,NW,10.4,-,N/A,,Clear,310,2013-07-26 19:53:00
1:53 PM,69.1,50.0,51,30.21,9.0,NW,9.2,16.1,N/A,,Clear,320,2013-07-26 20:53:00
2:53 PM,68.0,50.0,52,30.22,9.0,WNW,12.7,18.4,N/A,,Clear,290,2013-07-26 21:53:00
3:53 PM,69.1,48.9,49,30.22,9.0,NW,11.5,17.3,N/A,,Clear,310,2013-07-26 22:53:00
4:53 PM,66.9,50.0,54,30.22,8.0,NW,11.5,-,N/A,,Clear,320,2013-07-26 23:53:00
5:53 PM,66.0,51.1,59,30.21,8.0,NNW,9.2,-,N/A,,Clear,330,2013-07-27 00:53:00
6:53 PM,64.0,51.1,63,30.20,8.0,NW,9.2,16.1,N/A,,Clear,320,2013-07-27 01:53:00
7:53 PM,62.1,50.0,65,30.20,7.0,NW,10.4,-,N/A,,Clear,320,2013-07-27 02:53:00
8:53 PM,57.0,48.9,74,30.19,7.0,WNW,4.6,-,N/A,,Clear,300,2013-07-27 03:53:00
9:53 PM,55.9,48.9,77,30.20,8.0,Calm,Calm,-,N/A,,Clear,0,2013-07-27 04:53:00
10:53 PM,53.1,48.0,83,30.20,7.0,Calm,Calm,-,N/A,,Clear,0,2013-07-27 05:53:00
11:53 PM,52.0,46.0,80,30.19,7.0,Calm,Calm,-,N/A,,Clear,0,2013-07-27 06:53:00